Weather History for Leadville, CO

Change the Weather History Date:

Saturday, August 24, 2013

  Actual Average Record
Temperature  
Mean Temperature 54 °F -  
Max Temperature 67 °F 66 °F 76 °F (1988)
Min Temperature 41 °F 36 °F 27 °F (1985)
Degree Days  
Heating Degree Days 11 14  
Month to date heating degree days 280 286  
Since 1 June heating degree days 918 1102  
Since 1 July heating degree days 547 622  
Cooling Degree Days 0 0  
Month to date cooling degree days 0 0  
Year to date cooling degree days 0 0  
Since 1 June cooling degree days 0 0  
Growing Degree Days 4 (Base 50)    
Moisture  
Dew Point 41 °F    
Average Humidity 62    
Maximum Humidity 92    
Minimum Humidity 32    
Precipitation  
Precipitation 0.02 in 0.06 in 1.27 in (1992)
Month to date precipitation 1.11 1.61  
Year to date precipitation 11.34 8.53  
Sea Level Pressure  
Sea Level Pressure 30.03 in    
Wind  
Wind Speed 5 mph (North)    
Max Wind Speed 25 mph    
Max Gust Speed 31 mph    
Visibility 10 miles    
Events Rain , Thunderstorm    
T = Trace of Precipitation, MM = Missing Value Source: NWS Daily Summary

Daily Weather History Graph

Daily Weather History Graph

Search for Another Location

Airport:

Trip Planner

Search our weather history database for the weather conditions in past years. The results will help you decide how hot, cold, wet, or windy it might be!

Date:

Astronomy

Aug. 24, 2013 Rise Set
Actual Time 6:26 AM MDT 7:47 PM MDT
Civil Twilight 5:58 AM MDT 8:15 PM MDT
Nautical Twilight 5:25 AM MDT 8:48 PM MDT
Astronomical Twilight 4:50 AM MDT 9:23 PM MDT
Moon 9:45 PM MDT (8/24) 10:27 AM MDT (8/24)
Length of Visible Light 14h 16m
Length of Day
13h 20m
Waning Gibbous, 84% of the Moon is Illuminated
Aug 24
Waning Gibbous
Aug 28
Last Quarter
Sep 5
New
Sep 12
First Quarter
Sep 19
Full

Hourly Weather History & Observations

Time (MDT) Temp. Windchill Dew Point Humidity Pressure Visibility Wind Dir Wind Speed Gust Speed Precip Events Conditions
12:53 AM 48.0 °F - 43.0 °F 83% 29.89 in 10.0 mi North 5.8 mph - N/A   Scattered Clouds
1:53 AM 44.1 °F 40.1 °F 41.0 °F 89% 29.90 in 10.0 mi NE 6.9 mph - N/A   Clear
2:53 AM 42.1 °F - 39.0 °F 89% 29.93 in 10.0 mi Calm Calm - N/A   Clear
3:53 AM 44.1 °F - 41.0 °F 89% 29.99 in 10.0 mi Calm Calm - N/A   Scattered Clouds
4:53 AM 43.0 °F 41.3 °F 39.0 °F 86% 29.96 in 10.0 mi East 3.5 mph - N/A   Partly Cloudy
5:53 AM 44.1 °F - 39.9 °F 85% 29.95 in 10.0 mi Calm Calm - N/A   Mostly Cloudy
6:53 AM 46.9 °F - 39.9 °F 77% 29.94 in 10.0 mi East 4.6 mph - N/A   Overcast
7:53 AM 51.1 °F - 39.9 °F 66% 29.97 in 10.0 mi Calm Calm - N/A   Overcast
8:53 AM 55.0 °F - 41.0 °F 59% 29.96 in 10.0 mi West 3.5 mph - N/A   Clear
9:53 AM 57.9 °F - 39.9 °F 51% 29.95 in 10.0 mi South 4.6 mph - N/A   Scattered Clouds
10:53 AM 60.1 °F - 39.0 °F 46% 29.96 in 10.0 mi NNW 5.8 mph - N/A   Overcast
11:53 AM 60.1 °F - 37.9 °F 44% 29.98 in 10.0 mi NW 10.4 mph - N/A   Overcast
12:53 PM 61.0 °F - 37.0 °F 41% 29.97 in 10.0 mi NNW 9.2 mph - N/A   Overcast
1:53 PM 63.0 °F - 37.0 °F 38% 29.99 in 10.0 mi NNW 8.1 mph - N/A   Overcast
2:53 PM 63.0 °F - 36.0 °F 37% 29.98 in 10.0 mi West 5.8 mph - N/A   Overcast
3:53 PM 64.0 °F - 37.0 °F 37% 29.95 in 10.0 mi WSW 8.1 mph - N/A   Mostly Cloudy
4:53 PM 66.0 °F - 36.0 °F 33% 29.92 in 10.0 mi NW 5.8 mph - N/A   Scattered Clouds
5:33 PM 62.6 °F - 37.4 °F 39% 30.42 in 10.0 mi WNW 4.6 mph - N/A Thunderstorm Overcast
5:53 PM 55.0 °F - 46.0 °F 72% 30.01 in 6.0 mi South 23.0 mph 31.1 mph 0.00 in Rain , Thunderstorm Light Thunderstorms and Rain
6:02 PM 51.8 °F - 46.4 °F 82% 30.46 in 5.0 mi SSE 12.7 mph 28.8 mph 0.00 in Rain , Thunderstorm Light Thunderstorms and Rain
6:27 PM 51.8 °F - 46.4 °F 82% 30.46 in 7.0 mi NNE 3.5 mph - 0.02 in Rain Light Rain
6:53 PM 52.0 °F - 46.9 °F 83% 30.04 in 10.0 mi North 6.9 mph - 0.02 in   Overcast
7:53 PM 51.1 °F - 46.0 °F 83% 30.02 in 10.0 mi NNE 6.9 mph - N/A   Overcast
8:53 PM 48.9 °F - 46.0 °F 90% 30.03 in 10.0 mi North 4.6 mph - 0.00 in Rain Light Rain
9:53 PM 46.9 °F - 45.0 °F 93% 30.03 in 10.0 mi NNE 4.6 mph - 0.00 in   Clear
10:53 PM 45.0 °F 43.5 °F 42.1 °F 90% 30.04 in 10.0 mi NE 3.5 mph - N/A   Partly Cloudy
11:53 PM 45.0 °F 42.6 °F 42.1 °F 90% 30.04 in 10.0 mi NNW 4.6 mph - N/A   Mostly Cloudy